{"data":{"norad_id":67618,"epoch":"2026-05-25T04:49:02.779968Z","epoch_age_seconds":53747,"freshness":"FRESH","line1":"1 67618U 26020B   26145.20072662  .00016883  00000+0  62143-3 0  9995","line2":"2 67618  43.0000  67.7920 0001413 265.3859  94.6831 15.27590251 17810","mean_motion":15.27590251,"eccentricity":0.0001413,"inclination_deg":43,"raan_deg":67.792,"arg_perigee_deg":265.3859,"mean_anomaly_deg":94.6831,"bstar":0.00062143,"rev_number":1781,"period_min":94.266116130117,"perigee_km":482.04891977136,"apogee_km":483.98788228769,"semimajor_km":6861.1554010295,"source":"CELESTRAK","updated_at":"2026-05-25T13:38:21.648973Z"}}